,,PressureMeas_1m,,PRMeasQMR101_1,,RHStat155_1m_1,,SRMeasQMS101R_1m,,TAStat155_1m_1,,GenWind_1,,GenWind_1,
2019-01-04, 00:00:06,VALID,920.487,VALID,0.0,VALID,99.179,VALID,0.007,VALID,20.419,VALID,10.0,VALID,0.0,
2019-01-04, 00:01:06,VALID,920.493,VALID,0.0,VALID,99.158,VALID,0.0,VALID,20.364,INVALID,360.0,VALID,0.0,
2019-01-04, 00:02:06,VALID,920.494,VALID,0.0,VALID,99.162,VALID,-0.01,VALID,20.359,INVALID,360.0,VALID,0.0,
2019-01-04, 00:03:06,VALID,920.485,VALID,0.0,VALID,99.162,VALID,-0.005,VALID,20.359,VALID,1.0,VALID,0.0,
2019-01-04, 00:04:06,VALID,920.485,VALID,0.0,VALID,99.141,VALID,0.002,VALID,20.349,VALID,8.0,VALID,0.0,
2019-01-04, 00:05:06,VALID,920.489,VALID,0.0,VALID,99.139,VALID,-0.001,VALID,20.339,VALID,8.0,VALID,0.0,
2019-01-04, 00:06:06,VALID,920.474,VALID,0.0,VALID,99.147,VALID,-0.009,VALID,20.336,VALID,8.0,VALID,0.0,
2019-01-04, 00:07:06,VALID,920.471,VALID,0.0,VALID,99.146,VALID,-0.019,VALID,20.331,VALID,8.0,VALID,0.0,
2019-01-04, 00:08:06,VALID,920.467,VALID,0.0,VALID,99.142,VALID,-0.025,VALID,20.311,VALID,8.0,VALID,0.0,
2019-01-04, 00:09:06,VALID,920.451,VALID,0.0,VALID,99.143,VALID,-0.022,VALID,20.294,VALID,15.0,VALID,0.0,
2019-01-04, 00:10:06,VALID,920.448,VALID,0.0,VALID,99.154,VALID,-0.013,VALID,20.328,VALID,31.0,VALID,0.0,
2019-01-04, 00:11:06,VALID,920.44,VALID,0.0,VALID,99.152,VALID,-0.014,VALID,20.33,VALID,35.0,VALID,0.0,
2019-01-04, 00:12:06,VALID,920.451,VALID,0.0,VALID,99.122,VALID,-0.013,VALID,20.285,VALID,35.0,VALID,0.0,
2019-01-04, 00:13:06,VALID,920.457,VALID,0.0,VALID,99.116,VALID,-0.011,VALID,20.277,VALID,35.0,VALID,0.0,
2019-01-04, 00:14:06,VALID,920.446,VALID,0.0,VALID,99.145,VALID,0.005,VALID,20.325,VALID,30.0,VALID,0.0,
2019-01-04, 00:15:06,VALID,920.435,VALID,0.0,VALID,99.124,VALID,0.012,VALID,20.321,VALID,15.0,VALID,0.0,
2019-01-04, 00:16:06,VALID,920.404,VALID,0.0,VALID,99.144,VALID,0.001,VALID,20.327,VALID,7.0,VALID,0.0,
2019-01-04, 00:17:06,VALID,920.409,VALID,0.0,VALID,99.127,VALID,-0.014,VALID,20.327,VALID,8.0,VALID,0.0,
2019-01-04, 00:18:06,VALID,920.397,VALID,0.0,VALID,99.124,VALID,-0.01,VALID,20.35,VALID,36.0,VALID,0.0,
2019-01-04, 00:19:06,VALID,920.401,VALID,0.0,VALID,99.127,VALID,0.005,VALID,20.332,VALID,350.0,VALID,0.0,
2019-01-04, 00:20:06,VALID,920.398,VALID,0.0,VALID,99.118,VALID,-0.001,VALID,20.335,VALID,358.0,VALID,0.0,
2019-01-04, 00:21:06,VALID,920.399,VALID,0.0,VALID,99.105,VALID,0.003,VALID,20.321,VALID,29.0,VALID,0.0,
2019-01-04, 00:22:06,VALID,920.397,VALID,0.0,VALID,99.14,VALID,-0.001,VALID,20.358,VALID,29.0,VALID,0.0,
2019-01-04, 00:23:06,VALID,920.375,VALID,0.0,VALID,99.102,VALID,-0.001,VALID,20.324,VALID,280.0,VALID,0.0,
2019-01-04, 00:24:06,VALID,920.367,VALID,0.0,VALID,99.099,VALID,0.005,VALID,20.31,VALID,266.0,VALID,0.0,
2019-01-04, 00:25:06,VALID,920.343,VALID,0.0,VALID,99.114,VALID,-0.007,VALID,20.323,INVALID,360.0,VALID,0.0,
2019-01-04, 00:26:06,VALID,920.328,VALID,0.0,VALID,99.11,VALID,0.002,VALID,20.297,INVALID,360.0,VALID,0.0,
2019-01-04, 00:27:06,VALID,920.303,VALID,0.0,VALID,99.115,VALID,0.014,VALID,20.305,INVALID,360.0,VALID,0.0,
2019-01-04, 00:28:06,VALID,920.295,VALID,0.0,VALID,99.099,VALID,0.012,VALID,20.295,VALID,159.0,VALID,0.0,
2019-01-04, 00:29:06,VALID,920.264,VALID,0.0,VALID,99.097,VALID,0.007,VALID,20.292,VALID,118.0,VALID,0.0,
2019-01-04, 00:30:06,VALID,920.229,VALID,0.0,VALID,99.128,VALID,0.009,VALID,20.325,VALID,58.0,VALID,0.0,
2019-01-04, 00:31:06,VALID,920.213,VALID,0.0,VALID,99.123,VALID,0.015,VALID,20.326,VALID,56.0,VALID,0.0,
2019-01-04, 00:32:06,VALID,920.167,VALID,0.0,VALID,99.071,VALID,0.0,VALID,20.298,VALID,44.0,VALID,0.0,
2019-01-04, 00:33:06,VALID,920.138,VALID,0.0,VALID,99.064,VALID,0.009,VALID,20.268,VALID,36.0,VALID,0.0,
2019-01-04, 00:34:06,VALID,920.123,VALID,0.0,VALID,99.056,VALID,-0.009,VALID,20.236,VALID,27.0,VALID,0.0,
2019-01-04, 00:35:06,VALID,920.144,VALID,0.0,VALID,99.095,VALID,-0.007,VALID,20.234,VALID,22.0,VALID,0.0,
2019-01-04, 00:36:06,VALID,920.143,VALID,0.0,VALID,99.102,VALID,0.001,VALID,20.259,VALID,18.0,VALID,0.0,
2019-01-04, 00:37:06,VALID,920.137,VALID,0.0,VALID,99.07,VALID,-0.013,VALID,20.231,VALID,11.0,VALID,0.0,
2019-01-04, 00:38:06,VALID,920.117,VALID,0.0,VALID,99.073,VALID,-0.002,VALID,20.233,VALID,358.0,VALID,0.0,
2019-01-04, 00:39:06,VALID,920.13,VALID,0.0,VALID,99.078,VALID,0.015,VALID,20.247,VALID,5.0,VALID,0.0,
2019-01-04, 00:40:06,VALID,920.123,VALID,0.0,VALID,99.077,VALID,0.009,VALID,20.226,VALID,11.0,VALID,0.0,
2019-01-04, 00:41:06,VALID,920.087,VALID,0.0,VALID,99.064,VALID,-0.002,VALID,20.203,VALID,15.0,VALID,0.0,
2019-01-04, 00:42:06,VALID,920.084,VALID,0.0,VALID,99.079,VALID,-0.005,VALID,20.202,VALID,28.0,VALID,0.0,
2019-01-04, 00:43:06,VALID,920.049,VALID,0.0,VALID,99.079,VALID,0.001,VALID,20.215,VALID,7.0,VALID,0.0,
2019-01-04, 00:44:06,VALID,920.05,VALID,0.0,VALID,99.099,VALID,-0.006,VALID,20.222,VALID,6.0,VALID,0.0,
2019-01-04, 00:45:06,VALID,920.027,VALID,0.0,VALID,99.091,VALID,0.016,VALID,20.224,VALID,20.0,VALID,0.0,
2019-01-04, 00:46:06,VALID,919.993,VALID,0.0,VALID,99.086,VALID,0.002,VALID,20.206,VALID,33.0,VALID,0.0,
2019-01-04, 00:47:06,VALID,919.957,VALID,0.0,VALID,99.105,VALID,0.004,VALID,20.208,VALID,38.0,VALID,0.0,
2019-01-04, 00:48:06,VALID,919.959,VALID,0.0,VALID,99.075,VALID,0.019,VALID,20.196,VALID,40.0,VALID,0.0,
2019-01-04, 00:49:06,VALID,919.956,VALID,0.0,VALID,99.069,VALID,0.011,VALID,20.176,VALID,40.0,VALID,0.0,
2019-01-04, 00:50:06,VALID,919.922,VALID,0.0,VALID,99.088,VALID,0.012,VALID,20.177,VALID,36.0,VALID,0.0,
2019-01-04, 00:51:06,VALID,919.896,VALID,0.0,VALID,99.094,VALID,0.019,VALID,20.196,VALID,25.0,VALID,0.0,
2019-01-04, 00:52:06,VALID,919.905,VALID,0.0,VALID,99.124,VALID,0.007,VALID,20.203,VALID,34.0,VALID,0.0,
2019-01-04, 00:53:06,VALID,919.881,VALID,0.0,VALID,99.103,VALID,-0.011,VALID,20.178,VALID,30.0,VALID,0.0,
2019-01-04, 00:54:06,VALID,919.877,VALID,0.0,VALID,99.101,VALID,0.015,VALID,20.18,VALID,16.0,VALID,0.0,
2019-01-04, 00:55:06,VALID,919.867,VALID,0.0,VALID,99.125,VALID,0.013,VALID,20.178,VALID,32.0,VALID,0.0,
2019-01-04, 00:56:06,VALID,919.856,VALID,0.0,VALID,99.074,VALID,0.001,VALID,20.167,VALID,29.0,VALID,0.0,
2019-01-04, 00:57:06,VALID,919.85,VALID,0.0,VALID,99.104,VALID,-0.014,VALID,20.194,VALID,34.0,VALID,0.0,
2019-01-04, 00:58:06,VALID,919.811,VALID,0.0,VALID,99.096,VALID,0.01,VALID,20.187,VALID,38.0,VALID,0.0,
2019-01-04, 00:59:06,VALID,919.78,VALID,0.0,VALID,99.073,VALID,-0.007,VALID,20.174,VALID,42.0,VALID,0.0,
2019-01-04, 01:00:06,VALID,919.728,VALID,0.0,VALID,99.075,VALID,0.008,VALID,20.153,VALID,54.0,VALID,0.0,
2019-01-04, 01:01:06,VALID,919.691,VALID,0.0,VALID,99.06,VALID,-0.001,VALID,20.154,VALID,36.0,VALID,0.0,
2019-01-04, 01:02:06,VALID,919.681,VALID,0.0,VALID,99.064,VALID,-0.034,VALID,20.146,VALID,34.0,VALID,0.0,
2019-01-04, 01:03:06,VALID,919.645,VALID,0.0,VALID,99.048,VALID,-0.013,VALID,20.125,VALID,26.0,VALID,0.0,
2019-01-04, 01:04:06,VALID,919.614,VALID,0.0,VALID,99.071,VALID,0.0,VALID,20.154,VALID,24.0,VALID,0.0,
2019-01-04, 01:05:06,VALID,919.572,VALID,0.0,VALID,99.076,VALID,0.009,VALID,20.179,VALID,29.0,VALID,0.0,
2019-01-04, 01:06:06,VALID,919.537,VALID,0.0,VALID,99.058,VALID,0.005,VALID,20.159,VALID,50.0,VALID,0.0,
2019-01-04, 01:07:06,VALID,919.516,VALID,0.0,VALID,99.008,VALID,0.012,VALID,20.141,VALID,71.0,VALID,0.0,
2019-01-04, 01:08:06,VALID,919.512,VALID,0.0,VALID,98.977,VALID,0.002,VALID,20.122,VALID,93.0,VALID,0.0,
2019-01-04, 01:09:06,VALID,919.492,VALID,0.0,VALID,98.961,VALID,0.006,VALID,20.12,VALID,114.0,VALID,0.0,
2019-01-04, 01:10:06,VALID,919.506,VALID,0.0,VALID,98.974,VALID,-0.0,VALID,20.164,VALID,117.0,VALID,0.0,
2019-01-04, 01:11:06,VALID,919.496,VALID,0.0,VALID,98.981,VALID,0.007,VALID,20.201,VALID,119.0,VALID,0.0,
2019-01-04, 01:12:06,VALID,919.469,VALID,0.0,VALID,98.979,VALID,0.015,VALID,20.222,VALID,119.0,VALID,0.0,
2019-01-04, 01:13:06,VALID,919.46,VALID,0.0,VALID,98.962,VALID,0.018,VALID,20.236,VALID,121.0,VALID,0.0,
2019-01-04, 01:14:06,VALID,919.435,VALID,0.0,VALID,98.961,VALID,-0.006,VALID,20.236,VALID,121.0,VALID,0.0,
2019-01-04, 01:15:06,VALID,919.417,VALID,0.0,VALID,98.942,VALID,-0.002,VALID,20.212,VALID,102.0,VALID,0.0,
2019-01-04, 01:16:06,VALID,919.406,VALID,0.0,VALID,98.953,VALID,-0.002,VALID,20.197,VALID,100.0,VALID,0.0,
2019-01-04, 01:17:06,VALID,919.389,VALID,0.0,VALID,98.959,VALID,0.015,VALID,20.218,VALID,95.0,VALID,0.0,
2019-01-04, 01:18:06,VALID,919.42,VALID,0.0,VALID,98.97,VALID,0.001,VALID,20.24,VALID,93.0,VALID,0.0,
2019-01-04, 01:19:06,VALID,919.413,VALID,0.0,VALID,98.988,VALID,0.015,VALID,20.268,VALID,93.0,VALID,0.0,
2019-01-04, 01:20:06,VALID,919.4,VALID,0.0,VALID,98.993,VALID,-0.005,VALID,20.273,VALID,93.0,VALID,0.0,
2019-01-04, 01:21:06,VALID,919.396,VALID,0.0,VALID,98.97,VALID,0.003,VALID,20.262,VALID,93.0,VALID,0.0,
2019-01-04, 01:22:06,VALID,919.357,VALID,0.0,VALID,98.917,VALID,0.019,VALID,20.213,VALID,93.0,VALID,0.0,
2019-01-04, 01:23:06,VALID,919.315,VALID,0.0,VALID,98.922,VALID,-0.007,VALID,20.195,VALID,79.0,VALID,0.0,
2019-01-04, 01:24:06,VALID,919.282,VALID,0.0,VALID,98.934,VALID,-0.003,VALID,20.189,VALID,75.0,VALID,0.0,
2019-01-04, 01:25:06,VALID,919.287,VALID,0.0,VALID,98.9,VALID,-0.007,VALID,20.164,VALID,73.0,VALID,0.0,
2019-01-04, 01:26:06,VALID,919.308,VALID,0.0,VALID,98.857,VALID,-0.004,VALID,20.127,VALID,84.0,VALID,0.0,
2019-01-04, 01:27:06,VALID,919.331,VALID,0.0,VALID,98.863,VALID,-0.0,VALID,20.13,VALID,102.0,VALID,0.0,
2019-01-04, 01:28:06,VALID,919.326,VALID,0.0,VALID,98.866,VALID,0.004,VALID,20.134,VALID,95.0,VALID,0.0,
2019-01-04, 01:29:06,VALID,919.281,VALID,0.0,VALID,98.85,VALID,0.003,VALID,20.146,VALID,59.0,VALID,0.0,
2019-01-04, 01:30:06,VALID,919.213,VALID,0.0,VALID,98.82,VALID,0.007,VALID,20.148,VALID,78.0,VALID,0.0,
2019-01-04, 01:31:06,VALID,919.154,VALID,0.0,VALID,98.743,VALID,0.004,VALID,20.114,VALID,71.0,VALID,0.0,
2019-01-04, 01:32:06,VALID,919.091,VALID,0.0,VALID,98.705,VALID,-0.01,VALID,20.132,VALID,62.0,VALID,0.0,
2019-01-04, 01:33:06,VALID,919.081,VALID,0.0,VALID,98.659,VALID,-0.006,VALID,20.125,VALID,58.0,VALID,0.0,
2019-01-04, 01:34:06,VALID,919.057,VALID,0.0,VALID,98.606,VALID,-0.024,VALID,20.111,VALID,52.0,VALID,0.0,
2019-01-04, 01:35:06,VALID,919.069,VALID,0.0,VALID,98.541,VALID,-0.008,VALID,20.097,VALID,52.0,VALID,0.0,
2019-01-04, 01:36:06,VALID,919.046,VALID,0.0,VALID,98.489,VALID,-0.006,VALID,20.097,VALID,52.0,VALID,0.0,
2019-01-04, 01:37:06,VALID,919.052,VALID,0.0,VALID,98.518,VALID,-0.0,VALID,20.134,VALID,52.0,VALID,0.0,
2019-01-04, 01:38:06,VALID,919.032,VALID,0.0,VALID,98.565,VALID,0.012,VALID,20.184,VALID,52.0,VALID,0.0,
2019-01-04, 01:39:06,VALID,919.005,VALID,0.0,VALID,98.555,VALID,-0.008,VALID,20.188,VALID,49.0,VALID,0.0,
2019-01-04, 01:40:06,VALID,918.947,VALID,0.0,VALID,98.472,VALID,0.013,VALID,20.166,VALID,22.0,VALID,0.0,
2019-01-04, 01:41:06,VALID,918.925,VALID,0.0,VALID,98.384,VALID,-0.008,VALID,20.124,VALID,22.0,VALID,0.0,
2019-01-04, 01:42:06,VALID,918.944,VALID,0.0,VALID,98.432,VALID,-0.04,VALID,20.159,VALID,30.0,VALID,0.0,
2019-01-04, 01:43:06,VALID,918.935,VALID,0.0,VALID,98.411,VALID,-0.032,VALID,20.167,VALID,27.0,VALID,0.0,
2019-01-04, 01:44:06,VALID,918.913,VALID,0.0,VALID,98.367,VALID,-0.029,VALID,20.141,VALID,27.0,VALID,0.0,
2019-01-04, 01:45:06,VALID,918.926,VALID,0.0,VALID,98.4,VALID,-0.041,VALID,20.151,VALID,27.0,VALID,0.0,
2019-01-04, 01:46:06,VALID,918.902,VALID,0.0,VALID,98.359,VALID,-0.024,VALID,20.123,VALID,27.0,VALID,0.0,
2019-01-04, 01:47:06,VALID,918.907,VALID,0.0,VALID,98.377,VALID,-0.036,VALID,20.121,VALID,26.0,VALID,0.0,
2019-01-04, 01:48:06,VALID,918.945,VALID,0.0,VALID,98.43,VALID,-0.025,VALID,20.118,VALID,26.0,VALID,0.0,
2019-01-04, 01:49:06,VALID,918.938,VALID,0.0,VALID,98.464,VALID,-0.023,VALID,20.115,VALID,26.0,VALID,0.0,
2019-01-04, 01:50:06,VALID,918.943,VALID,0.0,VALID,98.506,VALID,-0.03,VALID,20.114,VALID,26.0,VALID,0.0,
2019-01-04, 01:51:06,VALID,918.97,VALID,0.0,VALID,98.493,VALID,-0.034,VALID,20.096,VALID,26.0,VALID,0.0,
2019-01-04, 01:52:06,VALID,918.963,VALID,0.0,VALID,98.561,VALID,-0.03,VALID,20.086,VALID,26.0,VALID,0.0,
2019-01-04, 01:53:06,VALID,918.947,VALID,0.0,VALID,98.581,VALID,-0.033,VALID,20.089,VALID,26.0,VALID,0.0,
2019-01-04, 01:54:06,VALID,918.926,VALID,0.0,VALID,98.643,VALID,-0.014,VALID,20.112,VALID,40.0,VALID,0.0,
2019-01-04, 01:55:06,VALID,918.902,VALID,0.0,VALID,98.658,VALID,-0.021,VALID,20.114,VALID,35.0,VALID,0.0,
2019-01-04, 01:56:06,VALID,918.863,VALID,0.0,VALID,98.66,VALID,-0.0,VALID,20.102,VALID,16.0,VALID,0.0,
2019-01-04, 01:57:06,VALID,918.841,VALID,0.0,VALID,98.677,VALID,0.006,VALID,20.11,VALID,9.0,VALID,0.0,
2019-01-04, 01:58:06,VALID,918.835,VALID,0.0,VALID,98.674,VALID,0.024,VALID,20.092,VALID,16.0,VALID,0.0,
2019-01-04, 01:59:06,VALID,918.839,VALID,0.0,VALID,98.664,VALID,0.007,VALID,20.067,VALID,16.0,VALID,0.0,
2019-01-04, 02:00:06,VALID,918.863,VALID,0.0,VALID,98.67,VALID,0.015,VALID,20.054,VALID,16.0,VALID,0.0,
2019-01-04, 02:01:06,VALID,918.883,VALID,0.0,VALID,98.715,VALID,0.008,VALID,20.092,VALID,18.0,VALID,0.0,
2019-01-04, 02:02:06,VALID,918.846,VALID,0.0,VALID,98.722,VALID,-0.0,VALID,20.102,VALID,83.0,VALID,0.0,
2019-01-04, 02:03:06,VALID,918.818,VALID,0.0,VALID,98.701,VALID,0.015,VALID,20.095,VALID,85.0,VALID,0.0,
2019-01-04, 02:04:06,VALID,918.835,VALID,0.0,VALID,98.649,VALID,0.012,VALID,20.11,VALID,85.0,VALID,0.0,
2019-01-04, 02:05:06,VALID,918.848,VALID,0.0,VALID,98.656,VALID,0.02,VALID,20.108,VALID,92.0,VALID,0.0,
2019-01-04, 02:06:06,VALID,918.857,VALID,0.0,VALID,98.52,VALID,0.025,VALID,20.046,VALID,102.0,VALID,0.0,
2019-01-04, 02:07:06,VALID,918.834,VALID,0.0,VALID,98.457,VALID,0.016,VALID,20.044,VALID,101.0,VALID,0.0,
2019-01-04, 02:08:06,VALID,918.84,VALID,0.0,VALID,98.465,VALID,0.005,VALID,20.089,VALID,79.0,VALID,0.0,
2019-01-04, 02:09:06,VALID,918.854,VALID,0.0,VALID,98.452,VALID,0.003,VALID,20.12,VALID,69.0,VALID,0.0,
2019-01-04, 02:10:06,VALID,918.872,VALID,0.0,VALID,98.436,VALID,0.012,VALID,20.15,VALID,39.0,VALID,0.0,
2019-01-04, 02:11:06,VALID,918.893,VALID,0.0,VALID,98.475,VALID,-0.001,VALID,20.181,VALID,351.0,VALID,0.0,
2019-01-04, 02:12:06,VALID,918.895,VALID,0.0,VALID,98.378,VALID,-0.019,VALID,20.13,VALID,346.0,VALID,0.0,
2019-01-04, 02:13:06,VALID,918.884,VALID,0.0,VALID,98.327,VALID,-0.001,VALID,20.094,VALID,353.0,VALID,0.0,
2019-01-04, 02:14:06,VALID,918.853,VALID,0.0,VALID,98.241,VALID,-0.009,VALID,20.062,VALID,17.0,VALID,0.0,
2019-01-04, 02:15:06,VALID,918.821,VALID,0.0,VALID,98.233,VALID,-0.023,VALID,20.072,VALID,28.0,VALID,0.0,
2019-01-04, 02:16:06,VALID,918.82,VALID,0.0,VALID,98.256,VALID,0.002,VALID,20.096,VALID,3.0,VALID,0.0,
2019-01-04, 02:17:06,VALID,918.846,VALID,0.0,VALID,98.304,VALID,0.001,VALID,20.123,VALID,343.0,VALID,0.0,
2019-01-04, 02:18:06,VALID,918.897,VALID,0.0,VALID,98.272,VALID,0.001,VALID,20.083,VALID,328.0,VALID,0.0,
2019-01-04, 02:19:06,VALID,918.961,VALID,0.0,VALID,98.347,VALID,-0.019,VALID,20.098,VALID,14.0,VALID,0.0,
2019-01-04, 02:20:06,VALID,918.985,VALID,0.0,VALID,98.466,VALID,0.003,VALID,20.127,VALID,20.0,VALID,0.0,
2019-01-04, 02:21:06,VALID,919.022,VALID,0.0,VALID,98.575,VALID,-0.015,VALID,20.152,VALID,27.0,VALID,0.0,
2019-01-04, 02:22:06,VALID,919.046,VALID,0.0,VALID,98.633,VALID,-0.009,VALID,20.172,VALID,38.0,VALID,0.0,
2019-01-04, 02:23:06,VALID,919.082,VALID,0.0,VALID,98.679,VALID,-0.006,VALID,20.18,VALID,22.0,VALID,0.0,
2019-01-04, 02:24:06,VALID,919.121,VALID,0.0,VALID,98.71,VALID,0.012,VALID,20.175,VALID,2.0,VALID,0.0,
2019-01-04, 02:25:06,VALID,919.131,VALID,0.0,VALID,98.77,VALID,-0.008,VALID,20.177,VALID,17.0,VALID,0.0,
2019-01-04, 02:26:06,VALID,919.163,VALID,0.0,VALID,98.775,VALID,0.006,VALID,20.161,VALID,22.0,VALID,0.0,
2019-01-04, 02:27:06,VALID,919.189,VALID,0.0,VALID,98.798,VALID,0.0,VALID,20.143,VALID,19.0,VALID,0.0,
2019-01-04, 02:28:06,VALID,919.23,VALID,0.0,VALID,98.809,VALID,-0.006,VALID,20.121,INVALID,360.0,VALID,0.0,
2019-01-04, 02:29:06,VALID,919.251,VALID,0.0,VALID,98.814,VALID,-0.004,VALID,20.071,INVALID,360.0,VALID,0.154,
2019-01-04, 02:30:06,VALID,919.232,VALID,0.0,VALID,98.842,VALID,0.01,VALID,20.051,VALID,221.0,VALID,0.98,
2019-01-04, 02:31:06,VALID,919.184,VALID,0.0,VALID,98.862,VALID,0.019,VALID,20.045,VALID,44.0,VALID,0.0,
2019-01-04, 02:32:06,VALID,919.128,VALID,0.0,VALID,98.855,VALID,0.015,VALID,19.99,VALID,82.0,VALID,0.0,
2019-01-04, 02:33:06,VALID,919.075,VALID,0.0,VALID,98.817,VALID,0.008,VALID,19.911,VALID,33.0,VALID,0.0,
2019-01-04, 02:34:06,VALID,919.068,VALID,0.0,VALID,98.873,VALID,-0.0,VALID,19.898,VALID,6.0,VALID,0.572,
2019-01-04, 02:35:06,VALID,919.055,VALID,0.0,VALID,98.865,VALID,0.019,VALID,19.824,VALID,340.0,VALID,1.652,
2019-01-04, 02:36:06,VALID,919.07,VALID,0.0,VALID,98.846,VALID,0.004,VALID,19.776,VALID,351.0,VALID,1.814,
2019-01-04, 02:37:06,VALID,919.083,VALID,0.0,VALID,98.904,VALID,-0.006,VALID,19.75,VALID,346.0,VALID,1.105,
2019-01-04, 02:38:06,VALID,919.121,VALID,0.0,VALID,98.903,VALID,0.008,VALID,19.706,VALID,339.0,VALID,0.344,
2019-01-04, 02:39:06,VALID,919.168,VALID,0.0,VALID,98.948,VALID,0.016,VALID,19.703,VALID,39.0,VALID,0.075,
2019-01-04, 02:40:06,VALID,919.182,VALID,0.0,VALID,98.989,VALID,0.021,VALID,19.711,VALID,11.0,VALID,0.0,
2019-01-04, 02:41:06,VALID,919.225,VALID,0.0,VALID,99.011,VALID,0.006,VALID,19.739,INVALID,360.0,VALID,0.0,
2019-01-04, 02:42:06,VALID,919.199,VALID,0.0,VALID,98.961,VALID,0.008,VALID,19.677,VALID,6.0,VALID,2.395,
2019-01-04, 02:43:06,VALID,919.216,VALID,0.0,VALID,98.959,VALID,0.004,VALID,19.629,VALID,351.0,VALID,0.932,
2019-01-04, 02:44:06,VALID,919.169,VALID,0.0,VALID,98.983,VALID,-0.005,VALID,19.604,VALID,355.0,VALID,2.224,
2019-01-04, 02:45:06,VALID,919.151,VALID,0.0,VALID,98.946,VALID,0.003,VALID,19.561,VALID,3.0,VALID,1.365,
2019-01-04, 02:46:06,VALID,919.178,VALID,0.0,VALID,98.994,VALID,-0.016,VALID,19.544,VALID,360.0,VALID,1.031,
2019-01-04, 02:47:06,VALID,919.163,VALID,0.0,VALID,99.005,VALID,-0.007,VALID,19.537,VALID,348.0,VALID,1.424,
2019-01-04, 02:48:06,VALID,919.148,VALID,0.0,VALID,99.018,VALID,-0.008,VALID,19.52,VALID,341.0,VALID,2.463,
2019-01-04, 02:49:06,VALID,919.12,VALID,0.0,VALID,99.017,VALID,0.014,VALID,19.493,VALID,350.0,VALID,2.808,
2019-01-04, 02:50:06,VALID,919.083,VALID,0.0,VALID,99.028,VALID,0.007,VALID,19.47,VALID,328.0,VALID,2.266,
2019-01-04, 02:51:06,VALID,919.051,VALID,0.0,VALID,99.034,VALID,0.001,VALID,19.47,VALID,299.0,VALID,0.997,
2019-01-04, 02:52:06,VALID,918.95,VALID,0.0,VALID,99.066,VALID,-0.013,VALID,19.477,VALID,358.0,VALID,1.702,
2019-01-04, 02:53:06,VALID,918.883,VALID,0.0,VALID,99.062,VALID,-0.006,VALID,19.474,VALID,5.0,VALID,0.821,
2019-01-04, 02:54:06,VALID,918.829,VALID,0.0,VALID,99.069,VALID,-0.012,VALID,19.467,VALID,359.0,VALID,0.0,
2019-01-04, 02:55:06,VALID,918.805,VALID,0.0,VALID,99.04,VALID,-0.004,VALID,19.431,VALID,14.0,VALID,0.0,
2019-01-04, 02:56:06,VALID,918.87,VALID,0.0,VALID,99.065,VALID,-0.009,VALID,19.409,VALID,3.0,VALID,0.0,
2019-01-04, 02:57:06,VALID,918.912,VALID,0.0,VALID,99.08,VALID,-0.006,VALID,19.418,VALID,11.0,VALID,0.0,
2019-01-04, 02:58:06,VALID,918.979,VALID,0.0,VALID,99.098,VALID,-0.019,VALID,19.423,VALID,17.0,VALID,0.0,
2019-01-04, 02:59:06,VALID,919.018,VALID,0.0,VALID,99.096,VALID,-0.009,VALID,19.417,VALID,350.0,VALID,0.0,
2019-01-04, 03:00:06,VALID,919.026,VALID,0.0,VALID,99.11,VALID,0.004,VALID,19.417,VALID,358.0,VALID,0.0,
2019-01-04, 03:01:06,VALID,919.011,VALID,0.0,VALID,99.123,VALID,-0.008,VALID,19.434,VALID,350.0,VALID,0.0,
2019-01-04, 03:02:06,VALID,919.016,VALID,0.0,VALID,99.134,VALID,-0.014,VALID,19.444,VALID,6.0,VALID,0.0,
2019-01-04, 03:03:06,VALID,919.027,VALID,0.0,VALID,99.135,VALID,0.007,VALID,19.444,VALID,2.0,VALID,0.0,
2019-01-04, 03:04:06,VALID,919.045,VALID,0.0,VALID,99.136,VALID,0.004,VALID,19.439,VALID,9.0,VALID,0.0,
2019-01-04, 03:05:06,VALID,919.068,VALID,0.0,VALID,99.151,VALID,0.001,VALID,19.445,VALID,351.0,VALID,0.0,
2019-01-04, 03:06:06,VALID,919.092,VALID,0.0,VALID,99.174,VALID,0.004,VALID,19.455,VALID,24.0,VALID,0.0,
2019-01-04, 03:07:06,VALID,919.105,VALID,0.0,VALID,99.184,VALID,0.007,VALID,19.475,VALID,17.0,VALID,0.0,
2019-01-04, 03:08:06,VALID,919.109,VALID,0.0,VALID,99.183,VALID,0.002,VALID,19.505,VALID,10.0,VALID,0.0,
2019-01-04, 03:09:06,VALID,919.114,VALID,0.0,VALID,99.19,VALID,-0.005,VALID,19.522,VALID,32.0,VALID,0.0,
2019-01-04, 03:10:06,VALID,919.113,VALID,0.0,VALID,99.213,VALID,0.016,VALID,19.534,VALID,133.0,VALID,0.0,
2019-01-04, 03:11:06,VALID,919.107,VALID,0.0,VALID,99.183,VALID,0.001,VALID,19.537,VALID,35.0,VALID,0.0,
2019-01-04, 03:12:06,VALID,919.063,VALID,0.0,VALID,99.228,VALID,-0.009,VALID,19.561,VALID,352.0,VALID,0.0,
2019-01-04, 03:13:06,VALID,919.07,VALID,0.0,VALID,99.222,VALID,-0.001,VALID,19.57,VALID,350.0,VALID,0.0,
2019-01-04, 03:14:06,VALID,919.034,VALID,0.0,VALID,99.216,VALID,0.012,VALID,19.566,VALID,6.0,VALID,0.0,
2019-01-04, 03:15:06,VALID,919.009,VALID,0.0,VALID,99.211,VALID,0.007,VALID,19.57,VALID,355.0,VALID,0.0,
2019-01-04, 03:16:06,VALID,919.019,VALID,0.0,VALID,99.223,VALID,-0.013,VALID,19.59,VALID,1.0,VALID,0.0,
2019-01-04, 03:17:06,VALID,918.972,VALID,0.0,VALID,99.253,VALID,-0.012,VALID,19.609,VALID,14.0,VALID,0.0,
2019-01-04, 03:18:06,VALID,918.954,VALID,0.0,VALID,99.238,VALID,-0.005,VALID,19.616,VALID,356.0,VALID,0.0,
2019-01-04, 03:19:06,VALID,918.942,VALID,0.0,VALID,99.229,VALID,-0.001,VALID,19.603,VALID,344.0,VALID,0.0,
2019-01-04, 03:20:06,VALID,918.909,VALID,0.0,VALID,99.216,VALID,-0.024,VALID,19.582,VALID,353.0,VALID,0.0,
2019-01-04, 03:21:06,VALID,918.905,VALID,0.0,VALID,99.21,VALID,-0.017,VALID,19.571,VALID,350.0,VALID,0.0,
2019-01-04, 03:22:06,VALID,918.905,VALID,0.0,VALID,99.232,VALID,-0.004,VALID,19.582,VALID,328.0,VALID,0.0,
2019-01-04, 03:23:06,VALID,918.923,VALID,0.0,VALID,99.238,VALID,0.011,VALID,19.571,VALID,312.0,VALID,0.0,
2019-01-04, 03:24:06,VALID,918.909,VALID,0.0,VALID,99.227,VALID,0.004,VALID,19.558,VALID,340.0,VALID,0.0,
2019-01-04, 03:25:06,VALID,918.899,VALID,0.0,VALID,99.221,VALID,-0.021,VALID,19.556,VALID,2.0,VALID,0.0,
2019-01-04, 03:26:06,VALID,918.872,VALID,0.0,VALID,99.25,VALID,-0.017,VALID,19.559,VALID,355.0,VALID,0.0,
2019-01-04, 03:27:06,VALID,918.891,VALID,0.0,VALID,99.251,VALID,-0.026,VALID,19.57,VALID,357.0,VALID,0.0,
2019-01-04, 03:28:06,VALID,918.917,VALID,0.0,VALID,99.259,VALID,-0.025,VALID,19.566,VALID,358.0,VALID,0.0,
2019-01-04, 03:29:06,VALID,918.87,VALID,0.0,VALID,99.245,VALID,-0.018,VALID,19.556,VALID,6.0,VALID,0.0,
2019-01-04, 03:30:06,VALID,918.888,VALID,0.0,VALID,99.25,VALID,-0.011,VALID,19.541,VALID,356.0,VALID,0.0,
2019-01-04, 03:31:06,VALID,918.892,VALID,0.0,VALID,99.255,VALID,-0.019,VALID,19.539,VALID,350.0,VALID,0.0,
2019-01-04, 03:32:06,VALID,918.916,VALID,0.0,VALID,99.283,VALID,-0.032,VALID,19.544,VALID,345.0,VALID,0.0,
2019-01-04, 03:33:06,VALID,918.919,VALID,0.0,VALID,99.259,VALID,-0.031,VALID,19.551,VALID,345.0,VALID,0.0,
2019-01-04, 03:34:06,VALID,918.899,VALID,0.0,VALID,99.266,VALID,-0.021,VALID,19.538,VALID,285.0,VALID,0.0,
2019-01-04, 03:35:06,VALID,918.915,VALID,0.0,VALID,99.264,VALID,-0.038,VALID,19.534,VALID,354.0,VALID,0.0,
2019-01-04, 03:36:06,VALID,918.9,VALID,0.0,VALID,99.264,VALID,-0.037,VALID,19.551,VALID,319.0,VALID,0.0,
2019-01-04, 03:37:06,VALID,918.891,VALID,0.0,VALID,99.281,VALID,-0.019,VALID,19.559,VALID,318.0,VALID,0.0,
2019-01-04, 03:38:06,VALID,918.902,VALID,0.0,VALID,99.267,VALID,-0.03,VALID,19.542,VALID,280.0,VALID,0.0,
2019-01-04, 03:39:06,VALID,918.91,VALID,0.0,VALID,99.268,VALID,-0.024,VALID,19.548,VALID,3.0,VALID,0.0,
2019-01-04, 03:40:06,VALID,918.895,VALID,0.0,VALID,99.283,VALID,-0.02,VALID,19.554,VALID,12.0,VALID,0.0,
2019-01-04, 03:41:06,VALID,918.881,VALID,0.0,VALID,99.289,VALID,-0.004,VALID,19.57,VALID,333.0,VALID,0.0,
2019-01-04, 03:42:06,VALID,918.891,VALID,0.0,VALID,99.291,VALID,0.006,VALID,19.58,VALID,12.0,VALID,0.0,
2019-01-04, 03:43:06,VALID,918.875,VALID,0.0,VALID,99.287,VALID,-0.004,VALID,19.577,VALID,20.0,VALID,0.0,